User: anonymous   Login
Location: Unspecified
(0.0000°N, 0.0000°E)
Time: 00:28:42
(UTC+00:00)
Language:

INTEGRAL - Orbit

View from above orbital plane
View from above orbital plane
View from above satellite
View from above satellite

Ground track
Ground track

The orbit data is extracted from the following two-line orbital elements,

1 27540U 02048A   18200.11677897  .00000693  00000-0  00000+0 0  9996
2 27540  48.8201 166.5318 8545568 268.9733   0.0502  0.37517071 15792
Epoch (UTC): 19 July 2018 02:48:09
Eccentricity: 0.8545568
inclination: 48.8201°
perigee height: 5432 km
apogee height: 144219 km
right ascension of ascending node: 166.5318°
argument of perigee: 268.9733°
revolutions per day: 0.37517071
mean anomaly at epoch: 0.0502°
orbit number at epoch: 1579

The dashed part of the orbit path shows where the satellite is in the earth's shadow,  

DLR